User: anonymous   Login
Location: Unspecified
(64.9000°N, 0.0000°E)
Time: 12:44:27
(UTC+00:00)
Language:

A-11 Canister half - Orbit

View from above orbital plane
View from above orbital plane
View from above satellite
View from above satellite

Ground track
Ground track

The orbit data is extracted from the following two-line orbital elements,

1    53U 60009E   19286.16084882 -.00000120  00000-0 -34006-3 0  9997
2    53  47.2761 304.6741 0096705  67.2491 293.8483 12.17230183638325
Epoch (UTC): 13 October 2019 03:51:37
Eccentricity: 0.0096705
inclination: 47.2761°
perigee height: 1527 km
apogee height: 1682 km
right ascension of ascending node: 304.6741°
argument of perigee: 67.2491°
revolutions per day: 12.17230183
mean anomaly at epoch: 293.8483°
orbit number at epoch: 63832

The dashed part of the orbit path shows where the satellite is in the earth's shadow,  

DLR